Flag for Spain Weather past 2 weeks in Valladolid, Spain

Now
82 °F

Passing clouds.


Feels Like: 81 °F
Forecast: 59 / 99 °F
Wind: 8 mph from Northwest

Location: Valladolid / Villanubla

Current Time: Jul 5, 2015 at 10:24:41 PM

Latest Report: Jul 5, 2015 at 9:30 PM


Visibility: N/A

Pressure: 30.12 "Hg (27.78 "Hg at 712m altitude)

Humidity: 32%

Dew point: 50 °F

Location of ValladolidLocation

Historic Weather in Valladolid — Graph

°F

Valladolid temperature yesterday

Maximum temperature yesterday: 91 °F (at 6:30 PM)
Minimum temperature yesterday: 59 °F (at 7:00 AM)
Average temperature yesterday: 81 °F

Past Weeks' High & Low Weather Summary

 TemperatureHumidityPressure
High95 °F (Jun 29, 2:00 PM)94% (Jun 23, 7:00 AM)30.27 "Hg (Jun 23, 7:00 AM)
Low54 °F (Jun 21, 7:00 AM)10% (Jul 4, 8:30 PM)29.95 "Hg (Jun 30, 8:00 PM)
Average78 °F39%30.13 "Hg
* Reported Jun 20 9:00 PM — Jul 5 9:00 PM, Valladolid, Weather by CustomWeather, © 2015

Note: Actual official high and low records may vary slightly from our data, if they occured in-between our weather recording intervals... More about our weather records

Advertising

Valladolid weather history for previous 24 hours

 ConditionsComfort  
Time TempWeatherWind HumidityBarometerVisibility
9:00 PM
Sun, Jul 5
86 °FPassing clouds.7 mph27%30.12 "HgN/A
8:30 PM86 °FPassing clouds.7 mph27%30.12 "HgN/A
8:00 PM88 °FPassing clouds.7 mph22%30.12 "HgN/A
7:30 PM88 °FPassing clouds.12 mph22%30.12 "HgN/A
7:00 PM88 °FPassing clouds.13 mph22%30.12 "HgN/A
6:30 PM90 °FPassing clouds.9 mph18%30.12 "HgN/A
6:00 PM88 °FPassing clouds.13 mph24%30.12 "HgN/A
5:30 PM88 °FPassing clouds.10 mph24%30.12 "HgN/A
5:00 PM88 °FPassing clouds.7 mph25%30.12 "HgN/A
4:30 PM88 °FPassing clouds.10 mph29%30.12 "HgN/A
4:00 PM88 °FPassing clouds.12 mph25%30.15 "HgN/A
3:30 PM88 °FPassing clouds.12 mph25%30.15 "HgN/A
3:00 PM86 °FPassing clouds.10 mph27%30.15 "HgN/A
2:30 PM84 °FPassing clouds.9 mph33%30.15 "HgN/A
2:00 PM84 °FSunny.8 mph35%30.15 "Hg10 mi
1:30 PM82 °FPassing clouds.8 mph37%30.15 "HgN/A
1:00 PM82 °FSunny.3 mph42%30.15 "Hg10 mi
12:30 PM81 °FPassing clouds.3 mph45%30.15 "HgN/A
12:00 PM77 °FSunny.2 mph51%30.15 "Hg10 mi
11:30 AM77 °FSunny.2 mph51%30.15 "Hg10 mi
11:00 AM77 °FSunny.1 mph54%30.15 "Hg10 mi
10:30 AM75 °FPassing clouds.3 mph57%30.15 "HgN/A
10:00 AM73 °FSunny.2 mph65%30.15 "Hg10 mi
9:30 AM72 °FSunny.No wind65%30.15 "Hg10 mi
9:00 AM70 °FSunny.No wind69%30.15 "Hg10 mi
8:30 AM64 °FSunny.No wind73%30.15 "Hg10 mi
8:00 AM61 °FSunny.No wind83%30.15 "Hg10 mi
7:30 AM57 °FClear.1 mph88%30.12 "Hg10 mi
7:00 AM59 °FClear.No wind82%30.12 "Hg10 mi
Weather by CustomWeather, © 2015

See weather overviewHow to use our weather pages